Vero Beach, FL

6:29 AM EST on December 13, 2017 (GMT -0500)
Vero Beach Municipal

Weather History for KVRB - March, 2014

Change the Weather History Date:

Tuesday, March 4, 2014

  Actual Average Record
Temperature  
Mean Temperature 68 °F 66 °F  
Max Temperature 80 °F 76 °F 89 °F (2001)
Min Temperature 56 °F 56 °F 28 °F (1980)
Degree Days  
Heating Degree Days 0 3  
Month to date heating degree days 0 12  
Since 1 July heating degree days 235 397  
Cooling Degree Days 3 4  
Month to date cooling degree days 13 16  
Year to date cooling degree days 221 155  
Growing Degree Days 18 (Base 50)    
Moisture  
Dew Point 63 °F    
Average Humidity 79    
Maximum Humidity 100    
Minimum Humidity 58    
Precipitation  
Precipitation 0.00 in 0.11 in 1.10 in (1978)
Month to date precipitation 0.00 0.43  
Year to date precipitation 6.55 5.60  
Sea Level Pressure  
Sea Level Pressure 30.03 in    
Wind  
Wind Speed 6 mph (NNW)    
Max Wind Speed 13 mph    
Max Gust Speed 17 mph    
Visibility 9 miles    
Events      
T = Trace of Precipitation, MM = Missing Value Source: NWS Daily Summary

Daily Weather History Graph

Daily Weather History Graph

Search for Another Location

Airport or City:

Trip Planner

Search our weather history database for the weather conditions in past years. The results will help you decide how hot, cold, wet, or windy it might be!

Date:

Astronomy

Mar. 04, 2014 Rise Set
Actual Time 6:43 AM EST 6:24 PM EST
Civil Twilight 6:19 AM EST 6:47 PM EST
Nautical Twilight 5:52 AM EST 7:14 PM EST
Astronomical Twilight 5:25 AM EST 7:41 PM EST
Moon 8:49 AM EST (3/4) 10:05 PM EST (3/4)
Length of Visible Light 12h 27m
Length of Day
11h 41m
Waxing Crescent, 14% of the Moon is Illuminated
Mar 4
Waxing Crescent
Mar 8
First Quarter
Mar 16
Full
Mar 23
Last Quarter
Mar 30
New

Hourly Weather History & Observations

Time (EST) Temp. Dew Point Humidity Pressure Visibility Wind Dir Wind Speed Gust Speed Precip Events Conditions
12:53 AM 64.0 °F 60.1 °F 87% 30.02 in 10.0 mi West 5.8 mph - N/A   Clear
1:53 AM 61.0 °F 59.0 °F 93% 30.01 in 10.0 mi West 4.6 mph - N/A   Clear
2:53 AM 61.0 °F 59.0 °F 93% 30.00 in 10.0 mi West 5.8 mph - N/A   Clear
3:53 AM 60.1 °F 59.0 °F 96% 29.99 in 10.0 mi West 3.5 mph - N/A   Clear
4:53 AM 59.0 °F 57.9 °F 96% 30.00 in 9.0 mi West 3.5 mph - N/A   Clear
5:53 AM 57.9 °F 57.0 °F 97% 30.02 in 10.0 mi WSW 3.5 mph - N/A   Clear
6:53 AM 57.0 °F 55.9 °F 96% 30.04 in 6.0 mi WSW 4.6 mph - N/A   Clear
7:53 AM 64.0 °F 62.1 °F 93% 30.07 in 7.0 mi West 3.5 mph - N/A   Clear
8:53 AM 71.1 °F 66.0 °F 84% 30.08 in 10.0 mi NW 6.9 mph - N/A   Clear
9:53 AM 75.0 °F 64.9 °F 71% 30.08 in 10.0 mi NW 3.5 mph - N/A   Clear
10:53 AM 75.9 °F 63.0 °F 64% 30.07 in 10.0 mi Calm Calm - N/A   Mostly Cloudy
11:53 AM 79.0 °F 63.0 °F 58% 30.05 in 10.0 mi NE 9.2 mph - N/A   Mostly Cloudy
12:53 PM 78.1 °F 64.0 °F 62% 30.02 in 10.0 mi ENE 10.4 mph - N/A   Partly Cloudy
1:53 PM 79.0 °F 62.1 °F 56% 30.01 in 10.0 mi East 9.2 mph - N/A   Scattered Clouds
2:53 PM 78.1 °F 63.0 °F 60% 30.01 in 10.0 mi East 9.2 mph - N/A   Clear
3:53 PM 78.1 °F 64.0 °F 62% 29.99 in 10.0 mi East 10.4 mph - N/A   Clear
4:53 PM 77.0 °F 63.0 °F 62% 29.99 in 10.0 mi East 10.4 mph - N/A   Clear
5:53 PM 75.0 °F 64.0 °F 69% 29.99 in 10.0 mi SE 10.4 mph - N/A   Clear
6:53 PM 71.1 °F 63.0 °F 75% 30.01 in 10.0 mi SE 4.6 mph - N/A   Clear
7:53 PM 69.1 °F 64.0 °F 84% 30.01 in 10.0 mi SE 4.6 mph - N/A   Clear
8:53 PM 66.0 °F 62.1 °F 87% 30.02 in 10.0 mi East 4.6 mph - N/A   Clear
9:53 PM 70.0 °F 66.0 °F 87% 30.04 in 10.0 mi North 6.9 mph - N/A   Scattered Clouds
10:38 PM 69.1 °F 66.9 °F 93% 30.05 in 8.0 mi North 3.5 mph - N/A   Partly Cloudy
10:51 PM 69.8 °F 68.0 °F 94% 30.05 in 8.0 mi Calm Calm - N/A   Mostly Cloudy
10:53 PM 69.1 °F 66.9 °F 93% 30.04 in 8.0 mi Calm Calm - N/A   Mostly Cloudy
11:53 PM 69.1 °F 66.9 °F 93% 30.05 in 8.0 mi NNW 4.6 mph - N/A   Overcast